When you browse on this site, cookies collect data to enhance your experience and personalize the content and advertising you see.
Visit our Privacy Policy to learn more. By continuing to use the site, you agree to this use of cookies and data.
  • In Lithuania
  • List of Countries
  • For 7 days
  • Water Temperature
  • Satellite Maps
  • Weather Map
  • Weather Widgets
  • user-avatar
    Login

    Hourly Weather Svetica

    Today, 19 January, Saturday

    Time Temperature Precipitation Wind Pressure Humidity
    00:00 -13°C° 0 mm 2 mps 733 mmHg 93%
    01:00 -13°C° 0 mm 2 mps 733 mmHg 94%
    02:00 -14°C° 0 mm 2 mps 733 mmHg 95%
    03:00 -14°C° 0 mm 2 mps 734 mmHg 96%
    04:00 -15°C° 0 mm 2 mps 734 mmHg 97%
    05:00 -16°C° 0 mm 2 mps 734 mmHg 97%
    06:00 -17°C° 0 mm 2 mps 734 mmHg 98%
    07:00 -17°C° 0 mm 2 mps 734 mmHg 97%
    08:00 -17°C° 0 mm 2 mps 735 mmHg 97%
    09:00 -18°C° 0 mm 2 mps 735 mmHg 97%
    10:00 -17°C° 0 mm 2 mps 735 mmHg 96%
    11:00 -17°C° 0 mm 3 mps 736 mmHg 95%
    12:00 -16°C° 0 mm 3 mps 736 mmHg 93%
    13:00 -16°C° 0 mm 3 mps 736 mmHg 93%
    14:00 -16°C° 0 mm 3 mps 736 mmHg 93%
    15:00 -15°C° 0 mm 3 mps 737 mmHg 92%
    16:00 -16°C° 0.1 mm 3 mps 737 mmHg 93%
    17:00 -16°C° 0.1 mm 3 mps 737 mmHg 93%
    18:00 -16°C° 0.1 mm 3 mps 737 mmHg 93%
    19:00 -15°C° 0.1 mm 3 mps 737 mmHg 93%
    20:00 -15°C° 0.1 mm 3 mps 738 mmHg 93%
    21:00 -15°C° 0.1 mm 3 mps 738 mmHg 93%
    22:00 -15°C° 0 mm 3 mps 738 mmHg 94%
    23:00 -15°C° 0 mm 3 mps 738 mmHg 94%

    Tomorrow, 20 January, Sunday

    Time Temperature Precipitation Wind Pressure Humidity
    00:00 -16°C° 0 mm 3 mps 739 mmHg 94%
    01:00 -16°C° 0 mm 3 mps 739 mmHg 95%
    02:00 -16°C° 0 mm 3 mps 739 mmHg 95%
    03:00 -17°C° 0 mm 3 mps 739 mmHg 95%
    04:00 -17°C° 0 mm 3 mps 739 mmHg 95%
    05:00 -17°C° 0 mm 3 mps 739 mmHg 95%
    06:00 -17°C° 0 mm 3 mps 739 mmHg 95%
    07:00 -17°C° 0 mm 2 mps 740 mmHg 95%
    08:00 -17°C° 0 mm 2 mps 740 mmHg 96%
    09:00 -18°C° 0 mm 2 mps 740 mmHg 96%
    10:00 -18°C° 0 mm 3 mps 740 mmHg 95%
    11:00 -16°C° 0 mm 3 mps 740 mmHg 94%
    12:00 -15°C° 0 mm 3 mps 740 mmHg 93%
    13:00 -15°C° 0 mm 3 mps 739 mmHg 94%
    14:00 -13°C° 0 mm 2 mps 739 mmHg 94%
    15:00 -12°C° 0 mm 2 mps 739 mmHg 94%
    16:00 -12°C° 0.1 mm 2 mps 738 mmHg 94%
    17:00 -12°C° 0.1 mm 3 mps 738 mmHg 94%
    18:00 -12°C° 0.1 mm 3 mps 737 mmHg 93%
    19:00 -10°C° 0.3 mm 3 mps 736 mmHg 94%
    20:00 -10°C° 0.3 mm 3 mps 736 mmHg 94%
    21:00 -10°C° 0.3 mm 3 mps 735 mmHg 94%
    22:00 -9°C° 0.2 mm 3 mps 735 mmHg 93%
    23:00 -9°C° 0.2 mm 3 mps 735 mmHg 93%

    Day after tomorrow, 21 January, Monday

    Time Temperature Precipitation Wind Pressure Humidity
    00:00 -8°C° 0.2 mm 3 mps 734 mmHg 92%
    01:00 -10°C° 0 mm 3 mps 734 mmHg 93%
    02:00 -12°C° 0 mm 3 mps 734 mmHg 94%
    03:00 -12°C° 0 mm 2 mps 734 mmHg 96%
    04:00 -12°C° 0.1 mm 2 mps 734 mmHg 95%
    05:00 -10°C° 0.1 mm 2 mps 734 mmHg 95%
    06:00 -9°C° 0.1 mm 2 mps 735 mmHg 95%
    07:00 -12°C° 0.1 mm 2 mps 735 mmHg 95%
    08:00 -15°C° 0.1 mm 3 mps 736 mmHg 95%
    09:00 -16°C° 0.1 mm 3 mps 736 mmHg 95%
    10:00 -17°C° 0 mm 3 mps 737 mmHg 95%
    11:00 -18°C° 0 mm 3 mps 737 mmHg 94%
    12:00 -18°C° 0 mm 3 mps 738 mmHg 94%
    13:00 -19°C° 0 mm 3 mps 738 mmHg 94%
    14:00 -19°C° 0 mm 3 mps 739 mmHg 94%
    15:00 -18°C° 0 mm 2 mps 739 mmHg 94%
    16:00 -19°C° 0 mm 2 mps 740 mmHg 95%
    17:00 -20°C° 0 mm 2 mps 740 mmHg 96%
    18:00 -21°C° 0 mm 2 mps 741 mmHg 96%
    19:00 -23°C° 0 mm 2 mps 741 mmHg 97%
    20:00 -24°C° 0 mm 2 mps 741 mmHg 97%
    21:00 -24°C° 0 mm 2 mps 742 mmHg 98%
    22:00 -25°C° 0 mm 2 mps 742 mmHg 98%
    23:00 -26°C° 0 mm 2 mps 742 mmHg 98%

    22 January, Tuesday

    Time Temperature Precipitation Wind Pressure Humidity
    00:00 -27°C° 0 mm 2 mps 743 mmHg 98%
    01:00 -28°C° 0 mm 2 mps 743 mmHg 98%
    02:00 -28°C° 0 mm 2 mps 743 mmHg 98%
    03:00 -29°C° 0 mm 2 mps 744 mmHg 98%
    04:00 -28°C° 0 mm 2 mps 744 mmHg 98%
    05:00 -28°C° 0 mm 2 mps 744 mmHg 98%
    06:00 -28°C° 0 mm 2 mps 744 mmHg 98%
    07:00 -27°C° 0 mm 2 mps 744 mmHg 98%
    08:00 -26°C° 0 mm 2 mps 745 mmHg 98%
    09:00 -25°C° 0 mm 2 mps 745 mmHg 98%
    10:00 -24°C° 0 mm 2 mps 745 mmHg 97%
    11:00 -23°C° 0 mm 2 mps 745 mmHg 96%
    12:00 -20°C° 0 mm 2 mps 746 mmHg 96%
    13:00 -20°C° 0 mm 2 mps 746 mmHg 96%
    14:00 -20°C° 0 mm 2 mps 746 mmHg 96%
    15:00 -20°C° 0 mm 2 mps 746 mmHg 96%
    16:00 -20°C° 0 mm 2 mps 746 mmHg 96%
    17:00 -21°C° 0 mm 2 mps 746 mmHg 96%
    18:00 -21°C° 0 mm 2 mps 746 mmHg 97%
    19:00 -23°C° 0 mm 2 mps 746 mmHg 97%
    20:00 -24°C° 0 mm 2 mps 746 mmHg 97%
    21:00 -24°C° 0 mm 2 mps 746 mmHg 97%
    22:00 -25°C° 0 mm 2 mps 746 mmHg 98%
    23:00 -26°C° 0 mm 2 mps 746 mmHg 98%

    23 January, Wednesday

    Time Temperature Precipitation Wind Pressure Humidity
    00:00 -27°C° 0 mm 2 mps 746 mmHg 98%
    01:00 -27°C° 0 mm 2 mps 746 mmHg 98%
    02:00 -27°C° 0 mm 2 mps 746 mmHg 98%
    03:00 -28°C° 0 mm 2 mps 746 mmHg 98%
    04:00 -28°C° 0 mm 2 mps 746 mmHg 98%
    05:00 -27°C° 0 mm 2 mps 746 mmHg 98%
    06:00 -27°C° 0 mm 2 mps 746 mmHg 98%
    07:00 -27°C° 0 mm 2 mps 746 mmHg 98%
    08:00 -27°C° 0 mm 2 mps 746 mmHg 98%
    09:00 -27°C° 0 mm 2 mps 746 mmHg 98%
    10:00 -26°C° 0 mm 2 mps 746 mmHg 97%
    11:00 -25°C° 0 mm 2 mps 746 mmHg 97%
    12:00 -24°C° 0 mm 2 mps 746 mmHg 96%
    13:00 -23°C° 0 mm 2 mps 746 mmHg 96%
    14:00 -23°C° 0 mm 2 mps 746 mmHg 96%
    15:00 -21°C° 0 mm 2 mps 746 mmHg 96%
    16:00 -21°C° 0.1 mm 2 mps 746 mmHg 96%
    17:00 -21°C° 0.1 mm 2 mps 746 mmHg 96%
    18:00 -21°C° 0.1 mm 2 mps 746 mmHg 96%
    19:00 -21°C° 0.1 mm 2 mps 746 mmHg 96%
    20:00 -20°C° 0.1 mm 2 mps 746 mmHg 96%
    21:00 -20°C° 0.1 mm 2 mps 746 mmHg 96%
    22:00 -20°C° 0 mm 2 mps 746 mmHg 96%
    23:00 -21°C° 0 mm 2 mps 746 mmHg 97%

    24 January, Thursday

    Time Temperature Precipitation Wind Pressure Humidity
    00:00 -19°C° 0 mm 1 mps 746 mmHg 98%
    01:00 -23°C° 0 mm 2 mps 746 mmHg 98%
    02:00 -23°C° 0 mm 2 mps 747 mmHg 98%
    03:00 -24°C° 0 mm 2 mps 747 mmHg 98%
    04:00 -24°C° 0 mm 2 mps 747 mmHg 98%
    05:00 -25°C° 0 mm 2 mps 748 mmHg 98%
    06:00 -26°C° 0 mm 2 mps 748 mmHg 98%
    07:00 -27°C° 0 mm 2 mps 748 mmHg 98%
    08:00 -28°C° 0 mm 2 mps 749 mmHg 98%
    09:00 -28°C° 0 mm 2 mps 750 mmHg 98%
    10:00 -27°C° 0 mm 2 mps 750 mmHg 98%
    11:00 -26°C° 0 mm 2 mps 751 mmHg 97%
    12:00 -25°C° 0 mm 2 mps 751 mmHg 96%
    13:00 -25°C° 0 mm 2 mps 752 mmHg 97%
    14:00 -25°C° 0 mm 2 mps 752 mmHg 97%
    15:00 -22°C° 0 mm 1 mps 753 mmHg 97%
    16:00 -23°C° 0 mm 1 mps 753 mmHg 97%
    17:00 -24°C° 0 mm 1 mps 754 mmHg 98%
    18:00 -25°C° 0 mm 1 mps 754 mmHg 98%
    19:00 -25°C° 0 mm 1 mps 755 mmHg 98%
    20:00 -25°C° 0 mm 1 mps 755 mmHg 99%
    21:00 -27°C° 0 mm 1 mps 756 mmHg 99%
    22:00 -27°C° 0 mm 1 mps 756 mmHg 99%
    23:00 -27°C° 0 mm 1 mps 757 mmHg 99%
    Show more